Time,TemperatureF,DewpointF,PressureIn,WindDirection,WindDirectionDegrees,WindSpeedMPH,WindSpeedGustMPH,Humidity,HourlyPrecipIn,Conditions,Clouds,dailyrainin,SoftwareType,DateUTC
2013-11-26 00:01:00,40.4,14.9,30.42,SSW,210,0.0,0.0,35,0.00,,,0.00,Wunderground v.1.15,2013-11-26 05:01:00,
2013-11-26 00:10:00,40.3,14.8,30.42,South,178,0.0,0.0,35,0.00,,,0.00,Wunderground v.1.15,2013-11-26 05:10:00,
2013-11-26 00:15:00,40.4,14.9,30.42,South,174,0.0,0.0,35,0.00,,,0.00,Wunderground v.1.15,2013-11-26 05:15:00,
2013-11-26 00:20:00,40.4,14.9,30.42,South,174,0.0,0.0,35,0.00,,,0.00,Wunderground v.1.15,2013-11-26 05:20:00,
2013-11-26 00:25:00,40.4,15.5,30.41,SW,223,0.0,0.0,36,0.00,,,0.00,Wunderground v.1.15,2013-11-26 05:25:00,
2013-11-26 00:31:00,40.4,14.9,30.41,SW,222,0.0,0.0,35,0.00,,,0.00,Wunderground v.1.15,2013-11-26 05:31:00,
2013-11-26 00:36:00,40.4,14.9,30.40,SW,222,0.0,3.0,35,0.00,,,0.00,Wunderground v.1.15,2013-11-26 05:36:00,
2013-11-26 00:41:00,40.3,14.8,30.39,SSW,200,0.0,3.0,35,0.00,,,0.00,Wunderground v.1.15,2013-11-26 05:41:00,
2013-11-26 00:50:00,40.3,14.8,30.39,ESE,117,0.0,3.0,35,0.00,,,0.00,Wunderground v.1.15,2013-11-26 05:50:00,
2013-11-26 01:00:00,40.2,14.7,30.38,SE,141,0.0,3.0,35,0.00,,,0.00,Wunderground v.1.15,2013-11-26 06:00:00,
2013-11-26 01:05:00,40.2,14.7,30.38,SW,233,1.0,3.0,35,0.00,,,0.00,Wunderground v.1.15,2013-11-26 06:05:00,
2013-11-26 01:10:00,40.2,14.7,30.37,SE,138,1.0,1.0,35,0.00,,,0.00,Wunderground v.1.15,2013-11-26 06:10:00,
2013-11-26 01:15:00,40.2,14.0,30.38,South,188,1.0,3.0,34,0.00,,,0.00,Wunderground v.1.15,2013-11-26 06:15:00,
2013-11-26 01:20:00,40.1,14.6,30.38,SW,215,1.0,1.0,35,0.00,,,0.00,Wunderground v.1.15,2013-11-26 06:20:00,
2013-11-26 01:25:00,40.1,14.6,30.37,SSW,210,0.0,3.0,35,0.00,,,0.00,Wunderground v.1.15,2013-11-26 06:25:00,
2013-11-26 01:30:00,40.1,14.6,30.37,SSE,166,1.0,1.0,35,0.00,,,0.00,Wunderground v.1.15,2013-11-26 06:30:00,
2013-11-26 01:35:00,40.0,14.5,30.37,South,181,0.0,3.0,35,0.00,,,0.00,Wunderground v.1.15,2013-11-26 06:35:00,
2013-11-26 01:41:00,40.0,14.5,30.36,SSE,156,1.0,3.0,35,0.00,,,0.00,Wunderground v.1.15,2013-11-26 06:41:00,
2013-11-26 01:46:00,40.0,14.5,30.36,South,184,1.0,3.0,35,0.00,,,0.00,Wunderground v.1.15,2013-11-26 06:46:00,
2013-11-26 01:51:00,40.0,15.2,30.35,SE,137,1.0,3.0,36,0.00,,,0.00,Wunderground v.1.15,2013-11-26 06:51:00,
2013-11-26 01:56:00,39.9,14.4,30.35,SE,144,1.0,3.0,35,0.00,,,0.00,Wunderground v.1.15,2013-11-26 06:56:00,
2013-11-26 02:06:00,39.9,15.1,30.34,SSE,151,0.0,3.0,36,0.00,,,0.00,Wunderground v.1.15,2013-11-26 07:06:00,
2013-11-26 02:15:00,39.9,14.4,30.35,SE,135,1.0,3.0,35,0.00,,,0.00,Wunderground v.1.15,2013-11-26 07:15:00,
2013-11-26 02:20:00,39.9,14.4,30.35,SSE,151,0.0,3.0,35,0.00,,,0.00,Wunderground v.1.15,2013-11-26 07:20:00,
2013-11-26 02:25:00,39.9,15.1,30.35,SSW,194,0.0,3.0,36,0.00,,,0.00,Wunderground v.1.15,2013-11-26 07:25:00,
2013-11-26 02:30:00,39.9,15.1,30.35,SSE,167,0.0,3.0,36,0.00,,,0.00,Wunderground v.1.15,2013-11-26 07:30:00,
2013-11-26 02:35:00,39.9,15.1,30.34,SSE,163,1.0,3.0,36,0.00,,,0.00,Wunderground v.1.15,2013-11-26 07:35:00,
2013-11-26 02:40:00,39.9,14.4,30.34,WSW,238,1.0,3.0,35,0.00,,,0.00,Wunderground v.1.15,2013-11-26 07:40:00,
2013-11-26 02:45:00,39.8,15.0,30.34,SSE,156,1.0,3.0,36,0.00,,,0.00,Wunderground v.1.15,2013-11-26 07:45:00,
2013-11-26 02:50:00,39.8,14.3,30.34,SSW,200,1.0,1.0,35,0.00,,,0.00,Wunderground v.1.15,2013-11-26 07:50:00,
2013-11-26 02:56:00,39.8,14.3,30.34,WSW,244,1.0,3.0,35,0.00,,,0.00,Wunderground v.1.15,2013-11-26 07:56:00,
2013-11-26 03:01:00,39.7,14.2,30.33,SSE,151,1.0,3.0,35,0.00,,,0.00,Wunderground v.1.15,2013-11-26 08:01:00,
2013-11-26 03:06:00,39.7,14.9,30.33,SSE,149,1.0,3.0,36,0.00,,,0.00,Wunderground v.1.15,2013-11-26 08:06:00,
2013-11-26 03:11:00,39.7,14.9,30.33,SSE,162,1.0,1.0,36,0.00,,,0.00,Wunderground v.1.15,2013-11-26 08:11:00,
2013-11-26 03:16:00,39.7,14.9,30.33,SSE,165,1.0,2.0,36,0.00,,,0.00,Wunderground v.1.15,2013-11-26 08:16:00,
2013-11-26 03:21:00,39.6,14.8,30.32,WSW,255,1.0,1.0,36,0.00,,,0.00,Wunderground v.1.15,2013-11-26 08:21:00,
2013-11-26 03:30:00,39.6,15.4,30.32,South,175,1.0,1.0,37,0.00,,,0.00,Wunderground v.1.15,2013-11-26 08:30:00,
2013-11-26 03:35:00,39.6,15.4,30.32,SE,144,1.0,3.0,37,0.00,,,0.00,Wunderground v.1.15,2013-11-26 08:35:00,
2013-11-26 03:45:00,39.6,15.4,30.32,SSE,163,0.0,3.0,37,0.00,,,0.00,Wunderground v.1.15,2013-11-26 08:45:00,
2013-11-26 03:50:00,39.6,15.4,30.32,SSE,161,0.0,3.0,37,0.00,,,0.00,Wunderground v.1.15,2013-11-26 08:50:00,
2013-11-26 03:55:00,39.6,14.8,30.32,SSE,161,0.0,3.0,36,0.00,,,0.00,Wunderground v.1.15,2013-11-26 08:55:00,
2013-11-26 04:01:00,39.6,14.8,30.32,SSE,147,0.0,3.0,36,0.00,,,0.00,Wunderground v.1.15,2013-11-26 09:01:00,
2013-11-26 04:06:00,39.6,14.8,30.32,SSE,147,1.0,3.0,36,0.00,,,0.00,Wunderground v.1.15,2013-11-26 09:06:00,
2013-11-26 04:11:00,39.6,15.4,30.32,SSW,210,0.0,3.0,37,0.00,,,0.00,Wunderground v.1.15,2013-11-26 09:11:00,
2013-11-26 04:21:00,39.6,17.8,30.32,South,191,1.0,1.0,41,0.00,,,0.00,Wunderground v.1.15,2013-11-26 09:21:00,
2013-11-26 04:26:00,39.4,18.2,30.32,South,188,0.0,3.0,42,0.00,,,0.00,Wunderground v.1.15,2013-11-26 09:26:00,
2013-11-26 04:31:00,39.3,19.2,30.31,SSE,168,0.0,3.0,44,0.00,,,0.00,Wunderground v.1.15,2013-11-26 09:31:00,
2013-11-26 04:40:00,38.8,21.3,30.31,SSE,153,0.0,5.0,49,0.00,,,0.00,Wunderground v.1.15,2013-11-26 09:40:00,
2013-11-26 04:45:00,38.6,21.1,30.31,South,185,1.0,5.0,49,0.00,,,0.00,Wunderground v.1.15,2013-11-26 09:45:00,
2013-11-26 04:50:00,38.3,22.2,30.31,South,185,1.0,1.0,52,0.00,,,0.00,Wunderground v.1.15,2013-11-26 09:50:00,
2013-11-26 04:55:00,38.2,24.7,30.31,South,185,0.0,3.0,58,0.00,,,0.00,Wunderground v.1.15,2013-11-26 09:55:00,
2013-11-26 05:00:00,38.0,24.9,30.31,South,184,0.0,3.0,59,0.00,,,0.01,Wunderground v.1.15,2013-11-26 10:00:00,
2013-11-26 05:05:00,37.7,25.8,30.32,South,170,0.0,3.0,62,0.00,,,0.01,Wunderground v.1.15,2013-11-26 10:05:00,
2013-11-26 05:11:00,37.4,26.3,30.31,SSE,162,0.0,3.0,64,0.00,,,0.01,Wunderground v.1.15,2013-11-26 10:11:00,
2013-11-26 05:16:00,37.0,27.8,30.31,SSE,162,0.0,3.0,69,0.00,,,0.01,Wunderground v.1.15,2013-11-26 10:16:00,
2013-11-26 05:26:00,36.3,28.8,30.31,SSE,164,0.0,3.0,74,0.00,,,0.02,Wunderground v.1.15,2013-11-26 10:26:00,
2013-11-26 05:31:00,35.9,28.4,30.30,South,174,0.0,3.0,74,0.00,,,0.02,Wunderground v.1.15,2013-11-26 10:31:00,
2013-11-26 05:36:00,35.7,29.2,30.30,South,174,0.0,3.0,77,0.04,,,0.03,Wunderground v.1.15,2013-11-26 10:36:00,
2013-11-26 05:41:00,35.3,29.1,30.30,South,176,0.0,3.0,78,0.04,,,0.03,Wunderground v.1.15,2013-11-26 10:41:00,
2013-11-26 05:50:00,34.7,29.5,30.29,SSE,153,1.0,1.0,81,0.04,,,0.03,Wunderground v.1.15,2013-11-26 10:50:00,
2013-11-26 05:55:00,34.6,30.0,30.29,SSW,194,1.0,3.0,83,0.28,,,0.05,Wunderground v.1.15,2013-11-26 10:55:00,
2013-11-26 06:00:00,34.3,29.7,30.29,SSE,151,1.0,1.0,83,0.11,,,0.06,Wunderground v.1.15,2013-11-26 11:00:00,
2013-11-26 06:05:00,34.2,30.2,30.28,South,191,1.0,3.0,85,0.13,,,0.07,Wunderground v.1.15,2013-11-26 11:05:00,
2013-11-26 06:10:00,34.1,30.4,30.28,SSE,156,1.0,1.0,86,0.08,,,0.07,Wunderground v.1.15,2013-11-26 11:10:00,
2013-11-26 06:15:00,33.9,30.2,30.27,SSE,160,1.0,5.0,86,0.06,,,0.08,Wunderground v.1.15,2013-11-26 11:15:00,
2013-11-26 06:21:00,33.8,30.3,30.27,SSW,210,1.0,3.0,87,0.14,,,0.09,Wunderground v.1.15,2013-11-26 11:21:00,
2013-11-26 06:26:00,33.7,30.5,30.27,SSE,165,1.0,3.0,88,0.08,,,0.09,Wunderground v.1.15,2013-11-26 11:26:00,
2013-11-26 06:36:00,33.7,30.8,30.26,South,175,1.0,2.0,89,0.17,,,0.11,Wunderground v.1.15,2013-11-26 11:36:00,
2013-11-26 06:41:00,33.7,30.8,30.26,SSW,210,2.0,3.0,89,0.10,,,0.11,Wunderground v.1.15,2013-11-26 11:41:00,
2013-11-26 06:46:00,33.7,31.1,30.26,SSE,165,1.0,3.0,90,0.07,,,0.12,Wunderground v.1.15,2013-11-26 11:46:00,
2013-11-26 06:51:00,33.7,31.1,30.26,SSE,159,1.0,1.0,90,0.07,,,0.12,Wunderground v.1.15,2013-11-26 11:51:00,
2013-11-26 06:56:00,33.7,31.1,30.25,South,189,1.0,3.0,90,0.07,,,0.13,Wunderground v.1.15,2013-11-26 11:56:00,
2013-11-26 07:01:00,33.7,31.1,30.25,SW,214,1.0,3.0,90,0.07,,,0.13,Wunderground v.1.15,2013-11-26 12:01:00,
2013-11-26 07:06:00,33.7,31.1,30.24,SSE,153,1.0,3.0,90,0.05,,,0.14,Wunderground v.1.15,2013-11-26 12:06:00,
2013-11-26 07:15:00,33.7,31.4,30.23,SSW,210,2.0,3.0,91,0.29,,,0.17,Wunderground v.1.15,2013-11-26 12:15:00,
2013-11-26 07:20:00,33.7,31.4,30.23,SW,216,2.0,3.0,91,0.14,,,0.18,Wunderground v.1.15,2013-11-26 12:20:00,
2013-11-26 07:25:00,33.7,31.4,30.23,SSW,210,2.0,3.0,91,0.13,,,0.19,Wunderground v.1.15,2013-11-26 12:25:00,
2013-11-26 07:31:00,33.7,31.6,30.23,South,184,1.0,3.0,92,0.09,,,0.20,Wunderground v.1.15,2013-11-26 12:31:00,
2013-11-26 07:41:00,33.7,31.6,30.21,WSW,242,2.0,3.0,92,0.07,,,0.21,Wunderground v.1.15,2013-11-26 12:41:00,
2013-11-26 07:46:00,33.8,31.7,30.21,South,182,1.0,3.0,92,0.05,,,0.22,Wunderground v.1.15,2013-11-26 12:46:00,
2013-11-26 07:51:00,33.8,31.7,30.21,SSE,154,2.0,2.0,92,0.05,,,0.22,Wunderground v.1.15,2013-11-26 12:51:00,
2013-11-26 07:56:00,33.9,31.8,30.22,SSE,162,2.0,3.0,92,0.06,,,0.23,Wunderground v.1.15,2013-11-26 12:56:00,
2013-11-26 08:01:00,33.9,31.8,30.21,South,172,1.0,1.0,92,0.06,,,0.23,Wunderground v.1.15,2013-11-26 13:01:00,
2013-11-26 08:06:00,34.0,31.9,30.21,SE,140,1.0,3.0,92,0.30,,,0.25,Wunderground v.1.15,2013-11-26 13:06:00,
2013-11-26 08:11:00,34.0,31.9,30.21,SSW,196,1.0,1.0,92,0.19,,,0.27,Wunderground v.1.15,2013-11-26 13:11:00,
2013-11-26 08:16:00,34.1,32.0,30.20,SE,143,1.0,3.0,92,0.11,,,0.27,Wunderground v.1.15,2013-11-26 13:16:00,
2013-11-26 08:25:00,34.1,32.0,30.20,SSE,165,1.0,3.0,92,0.04,,,0.27,Wunderground v.1.15,2013-11-26 13:25:00,
2013-11-26 08:30:00,34.2,32.4,30.19,South,174,1.0,3.0,93,0.00,,,0.27,Wunderground v.1.15,2013-11-26 13:30:00,
2013-11-26 08:35:00,34.2,32.4,30.18,SSE,162,1.0,3.0,93,0.00,,,0.28,Wunderground v.1.15,2013-11-26 13:35:00,
2013-11-26 08:41:00,34.3,32.5,30.18,SE,145,2.0,2.0,93,0.00,,,0.28,Wunderground v.1.15,2013-11-26 13:41:00,
2013-11-26 08:45:00,34.3,32.5,30.19,South,176,2.0,3.0,93,0.07,,,0.29,Wunderground v.1.15,2013-11-26 13:45:00,
2013-11-26 08:51:00,34.4,32.6,30.18,South,191,2.0,2.0,93,0.06,,,0.29,Wunderground v.1.15,2013-11-26 13:51:00,
2013-11-26 08:56:00,34.5,32.7,30.18,SSE,161,1.0,3.0,93,0.04,,,0.29,Wunderground v.1.15,2013-11-26 13:56:00,
2013-11-26 09:01:00,34.5,32.7,30.17,SE,131,1.0,3.0,93,0.04,,,0.30,Wunderground v.1.15,2013-11-26 14:01:00,
2013-11-26 09:06:00,34.6,32.8,30.18,SSE,162,1.0,3.0,93,0.11,,,0.31,Wunderground v.1.15,2013-11-26 14:06:00,
2013-11-26 09:11:00,34.7,32.9,30.17,SSE,150,2.0,2.0,93,0.09,,,0.31,Wunderground v.1.15,2013-11-26 14:11:00,
2013-11-26 09:16:00,34.8,33.0,30.17,SE,133,2.0,5.0,93,0.05,,,0.31,Wunderground v.1.15,2013-11-26 14:16:00,
2013-11-26 09:21:00,34.8,33.0,30.17,SE,143,2.0,3.0,93,0.04,,,0.31,Wunderground v.1.15,2013-11-26 14:21:00,
2013-11-26 09:26:00,34.9,33.1,30.17,SSE,156,2.0,3.0,93,0.00,,,0.31,Wunderground v.1.15,2013-11-26 14:26:00,
2013-11-26 09:31:00,34.9,33.1,30.17,South,187,2.0,2.0,93,0.00,,,0.31,Wunderground v.1.15,2013-11-26 14:31:00,
2013-11-26 09:40:00,35.0,33.2,30.17,South,169,1.0,3.0,93,0.00,,,0.32,Wunderground v.1.15,2013-11-26 14:40:00,
2013-11-26 09:45:00,35.1,33.3,30.16,SSE,155,1.0,3.0,93,0.07,,,0.33,Wunderground v.1.15,2013-11-26 14:45:00,
2013-11-26 09:55:00,35.3,33.5,30.16,SSE,154,1.0,3.0,93,0.05,,,0.33,Wunderground v.1.15,2013-11-26 14:55:00,
2013-11-26 10:01:00,35.3,33.5,30.17,SE,131,0.0,3.0,93,0.05,,,0.34,Wunderground v.1.15,2013-11-26 15:01:00,
2013-11-26 10:06:00,35.4,33.6,30.16,SE,139,0.0,3.0,93,0.12,,,0.35,Wunderground v.1.15,2013-11-26 15:06:00,
2013-11-26 10:11:00,35.4,33.6,30.15,SSE,151,1.0,1.0,93,0.07,,,0.36,Wunderground v.1.15,2013-11-26 15:11:00,
2013-11-26 10:16:00,35.5,33.7,30.16,SSW,210,1.0,3.0,93,0.12,,,0.37,Wunderground v.1.15,2013-11-26 15:16:00,
2013-11-26 10:21:00,35.6,33.8,30.15,SSE,161,1.0,1.0,93,0.10,,,0.37,Wunderground v.1.15,2013-11-26 15:21:00,
2013-11-26 10:31:00,35.8,34.0,30.14,SSW,200,1.0,1.0,93,0.05,,,0.38,Wunderground v.1.15,2013-11-26 15:31:00,
2013-11-26 10:36:00,35.8,34.0,30.14,WSW,250,1.0,2.0,93,0.09,,,0.39,Wunderground v.1.15,2013-11-26 15:36:00,
2013-11-26 10:41:00,35.8,34.0,30.14,SE,141,1.0,1.0,93,0.08,,,0.39,Wunderground v.1.15,2013-11-26 15:41:00,
2013-11-26 10:50:00,35.9,34.1,30.12,SSW,200,1.0,4.0,93,0.11,,,0.41,Wunderground v.1.15,2013-11-26 15:50:00,
2013-11-26 10:55:00,35.9,34.1,30.12,South,187,2.0,4.0,93,0.07,,,0.42,Wunderground v.1.15,2013-11-26 15:55:00,
2013-11-26 11:05:00,36.1,34.3,30.11,SW,233,1.0,2.0,93,0.08,,,0.43,Wunderground v.1.15,2013-11-26 16:05:00,
2013-11-26 11:11:00,36.2,34.4,30.10,South,179,1.0,3.0,93,0.18,,,0.45,Wunderground v.1.15,2013-11-26 16:11:00,
2013-11-26 11:16:00,36.3,34.5,30.11,SE,135,1.0,3.0,93,0.10,,,0.45,Wunderground v.1.15,2013-11-26 16:16:00,
2013-11-26 11:21:00,36.4,34.6,30.10,SSW,210,1.0,1.0,93,0.22,,,0.47,Wunderground v.1.15,2013-11-26 16:21:00,
2013-11-26 11:26:00,36.5,34.7,30.09,SSE,160,1.0,3.0,93,0.11,,,0.47,Wunderground v.1.15,2013-11-26 16:26:00,
2013-11-26 11:31:00,36.6,34.8,30.08,SSE,164,1.0,1.0,93,0.08,,,0.48,Wunderground v.1.15,2013-11-26 16:31:00,
2013-11-26 11:36:00,36.8,35.0,30.08,SSW,200,1.0,2.0,93,0.08,,,0.48,Wunderground v.1.15,2013-11-26 16:36:00,
2013-11-26 11:41:00,36.9,35.1,30.07,SE,145,1.0,3.0,93,0.08,,,0.49,Wunderground v.1.15,2013-11-26 16:41:00,
2013-11-26 11:46:00,37.0,35.2,30.06,South,188,1.0,3.0,93,0.06,,,0.50,Wunderground v.1.15,2013-11-26 16:46:00,
2013-11-26 11:51:00,37.1,35.3,30.06,SSE,151,2.0,3.0,93,0.13,,,0.51,Wunderground v.1.15,2013-11-26 16:51:00,
2013-11-26 11:56:00,37.2,35.4,30.05,South,190,1.0,3.0,93,0.10,,,0.51,Wunderground v.1.15,2013-11-26 16:56:00,
2013-11-26 12:06:00,37.5,35.7,30.04,West,279,1.0,3.0,93,0.10,,,0.53,Wunderground v.1.15,2013-11-26 17:06:00,
2013-11-26 12:15:00,37.8,36.0,30.02,SSW,205,1.0,3.0,93,0.06,,,0.53,Wunderground v.1.15,2013-11-26 17:15:00,
2013-11-26 12:21:00,37.9,36.1,30.02,WSW,248,1.0,1.0,93,0.04,,,0.53,Wunderground v.1.15,2013-11-26 17:21:00,
2013-11-26 12:26:00,38.2,36.4,30.01,SW,222,1.0,3.0,93,0.00,,,0.53,Wunderground v.1.15,2013-11-26 17:26:00,
2013-11-26 12:31:00,38.4,36.6,30.01,SE,133,1.0,3.0,93,0.00,,,0.54,Wunderground v.1.15,2013-11-26 17:31:00,
2013-11-26 12:36:00,38.5,36.7,30.00,SW,232,1.0,3.0,93,0.00,,,0.54,Wunderground v.1.15,2013-11-26 17:36:00,
2013-11-26 12:46:00,38.8,36.9,29.99,SSW,210,1.0,3.0,93,0.06,,,0.55,Wunderground v.1.15,2013-11-26 17:46:00,
2013-11-26 12:51:00,39.0,37.1,29.99,SW,217,1.0,3.0,93,0.04,,,0.55,Wunderground v.1.15,2013-11-26 17:51:00,
2013-11-26 12:56:00,39.4,37.5,29.98,SSE,164,1.0,3.0,93,0.04,,,0.56,Wunderground v.1.15,2013-11-26 17:56:00,
2013-11-26 13:01:00,39.7,37.8,29.98,South,191,1.0,1.0,93,0.09,,,0.57,Wunderground v.1.15,2013-11-26 18:01:00,
2013-11-26 13:06:00,39.8,37.9,29.98,West,268,1.0,2.0,93,0.07,,,0.57,Wunderground v.1.15,2013-11-26 18:06:00,
2013-11-26 13:16:00,40.1,38.2,29.97,WSW,247,1.0,3.0,93,0.13,,,0.59,Wunderground v.1.15,2013-11-26 18:16:00,
2013-11-26 13:25:00,40.4,38.5,29.95,West,273,2.0,3.0,93,0.07,,,0.60,Wunderground v.1.15,2013-11-26 18:25:00,
2013-11-26 13:31:00,40.7,38.8,29.94,SSW,200,1.0,3.0,93,0.09,,,0.61,Wunderground v.1.15,2013-11-26 18:31:00,
2013-11-26 13:36:00,41.0,39.1,29.94,SE,131,1.0,3.0,93,0.06,,,0.61,Wunderground v.1.15,2013-11-26 18:36:00,
2013-11-26 13:41:00,41.4,39.5,29.93,West,268,2.0,3.0,93,0.04,,,0.61,Wunderground v.1.15,2013-11-26 18:41:00,
2013-11-26 13:46:00,41.5,39.6,29.92,West,277,2.0,3.0,93,0.00,,,0.61,Wunderground v.1.15,2013-11-26 18:46:00,
2013-11-26 13:51:00,41.8,39.9,29.93,West,281,1.0,1.0,93,0.16,,,0.63,Wunderground v.1.15,2013-11-26 18:51:00,
2013-11-26 13:56:00,42.4,40.5,29.92,SSW,196,1.0,3.0,93,0.11,,,0.63,Wunderground v.1.15,2013-11-26 18:56:00,
2013-11-26 14:01:00,42.7,40.8,29.92,West,260,2.0,5.0,93,0.23,,,0.65,Wunderground v.1.15,2013-11-26 19:01:00,
2013-11-26 14:06:00,42.8,40.9,29.91,SSW,194,1.0,5.0,93,0.09,,,0.66,Wunderground v.1.15,2013-11-26 19:06:00,
2013-11-26 14:11:00,42.9,41.0,29.91,West,273,1.0,1.0,93,0.09,,,0.66,Wunderground v.1.15,2013-11-26 19:11:00,
2013-11-26 14:16:00,43.1,41.2,29.90,WSW,251,0.0,3.0,93,0.10,,,0.67,Wunderground v.1.15,2013-11-26 19:16:00,
2013-11-26 14:26:00,43.4,41.5,29.90,SSW,200,1.0,3.0,93,0.13,,,0.69,Wunderground v.1.15,2013-11-26 19:26:00,
2013-11-26 14:31:00,43.6,41.7,29.90,SW,226,1.0,3.0,93,0.09,,,0.69,Wunderground v.1.15,2013-11-26 19:31:00,
2013-11-26 14:41:00,44.2,42.3,29.89,WSW,252,1.0,1.0,93,0.24,,,0.71,Wunderground v.1.15,2013-11-26 19:41:00,
2013-11-26 14:46:00,44.5,42.6,29.88,West,268,1.0,2.0,93,0.08,,,0.71,Wunderground v.1.15,2013-11-26 19:46:00,
2013-11-26 14:51:00,44.8,42.9,29.88,WSW,254,1.0,1.0,93,0.07,,,0.72,Wunderground v.1.15,2013-11-26 19:51:00,
2013-11-26 15:01:00,45.2,43.3,29.86,West,271,1.0,3.0,93,0.07,,,0.73,Wunderground v.1.15,2013-11-26 20:01:00,
2013-11-26 15:06:00,45.5,43.6,29.86,West,266,1.0,3.0,93,0.06,,,0.73,Wunderground v.1.15,2013-11-26 20:06:00,
2013-11-26 15:11:00,45.6,43.7,29.86,West,272,1.0,1.0,93,0.04,,,0.73,Wunderground v.1.15,2013-11-26 20:11:00,
2013-11-26 15:16:00,45.8,43.9,29.85,WNW,286,1.0,2.0,93,0.00,,,0.74,Wunderground v.1.15,2013-11-26 20:16:00,
2013-11-26 15:21:00,45.9,44.0,29.83,West,268,1.0,3.0,93,0.19,,,0.75,Wunderground v.1.15,2013-11-26 20:21:00,
2013-11-26 15:26:00,46.0,44.1,29.84,West,281,2.0,3.0,93,0.08,,,0.75,Wunderground v.1.15,2013-11-26 20:26:00,
2013-11-26 15:31:00,46.0,44.1,29.84,West,276,1.0,1.0,93,0.07,,,0.76,Wunderground v.1.15,2013-11-26 20:31:00,
2013-11-26 15:36:00,46.1,44.2,29.83,West,274,1.0,3.0,93,0.08,,,0.77,Wunderground v.1.15,2013-11-26 20:36:00,
2013-11-26 15:46:00,46.3,44.4,29.82,West,281,0.0,2.0,93,0.31,,,0.79,Wunderground v.1.15,2013-11-26 20:46:00,
2013-11-26 15:51:00,46.5,44.6,29.81,West,272,0.0,3.0,93,0.34,,,0.81,Wunderground v.1.15,2013-11-26 20:51:00,
2013-11-26 15:56:00,46.8,44.9,29.81,West,267,0.0,3.0,93,0.25,,,0.83,Wunderground v.1.15,2013-11-26 20:56:00,
2013-11-26 16:06:00,47.8,45.9,29.80,SSE,166,0.0,3.0,93,0.21,,,0.85,Wunderground v.1.15,2013-11-26 21:06:00,
2013-11-26 16:11:00,48.2,46.3,29.80,East,79,0.0,3.0,93,0.13,,,0.86,Wunderground v.1.15,2013-11-26 21:11:00,
2013-11-26 16:16:00,48.5,46.6,29.78,SSE,162,0.0,3.0,93,0.15,,,0.87,Wunderground v.1.15,2013-11-26 21:16:00,
2013-11-26 16:21:00,48.8,46.9,29.77,SSE,166,0.0,3.0,93,0.20,,,0.89,Wunderground v.1.15,2013-11-26 21:21:00,
2013-11-26 16:26:00,49.2,47.3,29.77,SSW,200,0.0,3.0,93,0.09,,,0.89,Wunderground v.1.15,2013-11-26 21:26:00,
2013-11-26 16:31:00,49.7,48.0,29.77,SSE,162,0.0,3.0,94,0.17,,,0.91,Wunderground v.1.15,2013-11-26 21:31:00,
2013-11-26 16:41:00,50.3,48.6,29.77,SSE,162,0.0,3.0,94,0.37,,,0.95,Wunderground v.1.15,2013-11-26 21:41:00,
2013-11-26 16:46:00,50.6,48.9,29.77,North,349,0.0,3.0,94,0.32,,,0.98,Wunderground v.1.15,2013-11-26 21:46:00,
2013-11-26 16:56:00,50.9,49.2,29.76,North,349,0.0,3.0,94,0.10,,,0.99,Wunderground v.1.15,2013-11-26 21:56:00,
2013-11-26 17:01:00,51.0,49.3,29.76,NNE,28,0.0,3.0,94,0.06,,,1.00,Wunderground v.1.15,2013-11-26 22:01:00,
2013-11-26 17:06:00,51.1,49.4,29.75,NE,52,1.0,3.0,94,0.15,,,1.01,Wunderground v.1.15,2013-11-26 22:06:00,
2013-11-26 17:11:00,50.7,48.7,29.74,South,191,1.0,1.0,93,0.37,,,1.06,Wunderground v.1.15,2013-11-26 22:11:00,
2013-11-26 17:16:00,50.4,48.5,29.74,East,83,1.0,3.0,93,0.19,,,1.08,Wunderground v.1.15,2013-11-26 22:16:00,
2013-11-26 17:21:00,50.1,48.2,29.73,ENE,64,1.0,3.0,93,0.42,,,1.11,Wunderground v.1.15,2013-11-26 22:21:00,
2013-11-26 17:26:00,49.3,47.4,29.73,South,187,1.0,3.0,93,0.29,,,1.13,Wunderground v.1.15,2013-11-26 22:26:00,
2013-11-26 17:31:00,48.9,47.2,29.73,SE,141,0.0,3.0,94,0.22,,,1.16,Wunderground v.1.15,2013-11-26 22:31:00,
2013-11-26 17:36:00,48.6,46.7,29.73,NE,53,1.0,3.0,93,0.22,,,1.19,Wunderground v.1.15,2013-11-26 22:36:00,
2013-11-26 17:46:00,48.2,46.3,29.74,NE,37,2.0,3.0,93,0.05,,,1.19,Wunderground v.1.15,2013-11-26 22:46:00,
2013-11-26 17:51:00,48.0,46.1,29.72,SSE,155,2.0,2.0,93,0.00,,,1.19,Wunderground v.1.15,2013-11-26 22:51:00,
2013-11-26 17:56:00,48.0,46.1,29.74,NE,38,2.0,3.0,93,0.00,,,1.19,Wunderground v.1.15,2013-11-26 22:56:00,
2013-11-26 18:06:00,47.9,46.0,29.73,South,188,1.0,3.0,93,0.00,,,1.19,Wunderground v.1.15,2013-11-26 23:06:00,
2013-11-26 18:11:00,47.5,45.9,29.74,SSW,210,2.0,2.0,94,0.00,,,1.19,Wunderground v.1.15,2013-11-26 23:11:00,
2013-11-26 18:21:00,46.3,44.7,29.75,ENE,75,3.0,7.0,94,0.00,,,1.19,Wunderground v.1.15,2013-11-26 23:21:00,
2013-11-26 18:26:00,45.0,43.1,29.76,ENE,65,5.0,7.0,93,0.00,,,1.19,Wunderground v.1.15,2013-11-26 23:26:00,
2013-11-26 18:31:00,44.1,42.2,29.79,NE,51,4.0,4.0,93,0.17,,,1.21,Wunderground v.1.15,2013-11-26 23:31:00,
2013-11-26 18:36:00,43.6,41.7,29.79,ENE,76,4.0,4.0,93,0.09,,,1.21,Wunderground v.1.15,2013-11-26 23:36:00,
2013-11-26 18:41:00,43.3,41.4,29.78,NNW,339,3.0,3.0,93,0.18,,,1.23,Wunderground v.1.15,2013-11-26 23:41:00,
2013-11-26 18:46:00,43.0,41.4,29.78,NE,35,3.0,3.0,94,0.07,,,1.23,Wunderground v.1.15,2013-11-26 23:46:00,
2013-11-26 18:56:00,42.8,41.2,29.79,NE,52,2.0,3.0,94,0.05,,,1.24,Wunderground v.1.15,2013-11-26 23:56:00,
2013-11-26 19:01:00,42.8,41.2,29.78,NE,50,1.0,1.0,94,0.05,,,1.24,Wunderground v.1.15,2013-11-27 00:01:00,
2013-11-26 19:11:00,42.9,41.3,29.78,NNE,25,1.0,3.0,94,0.04,,,1.25,Wunderground v.1.15,2013-11-27 00:11:00,
2013-11-26 19:16:00,42.9,41.3,29.78,South,176,1.0,3.0,94,0.04,,,1.25,Wunderground v.1.15,2013-11-27 00:16:00,
2013-11-26 19:21:00,43.0,41.1,29.78,North,8,1.0,1.0,93,0.04,,,1.25,Wunderground v.1.15,2013-11-27 00:21:00,
2013-11-26 19:31:00,43.2,41.3,29.77,SSE,162,0.0,3.0,93,0.00,,,1.25,Wunderground v.1.15,2013-11-27 00:31:00,
2013-11-26 19:36:00,43.3,41.4,29.77,NE,40,0.0,3.0,93,0.00,,,1.25,Wunderground v.1.15,2013-11-27 00:36:00,
2013-11-26 19:41:00,43.3,41.7,29.77,ENE,70,1.0,1.0,94,0.00,,,1.25,Wunderground v.1.15,2013-11-27 00:41:00,
2013-11-26 19:46:00,43.4,41.8,29.76,East,91,1.0,3.0,94,0.00,,,1.25,Wunderground v.1.15,2013-11-27 00:46:00,
2013-11-26 19:51:00,43.5,41.6,29.77,South,183,1.0,3.0,93,0.00,,,1.26,Wunderground v.1.15,2013-11-27 00:51:00,
2013-11-26 20:01:00,43.6,42.0,29.77,South,183,0.0,3.0,94,0.00,,,1.26,Wunderground v.1.15,2013-11-27 01:01:00,
2013-11-26 20:06:00,43.7,41.8,29.76,SSE,156,0.0,3.0,93,0.04,,,1.27,Wunderground v.1.15,2013-11-27 01:06:00,
2013-11-26 20:16:00,43.7,41.8,29.75,SSW,210,0.0,3.0,93,0.06,,,1.28,Wunderground v.1.15,2013-11-27 01:16:00,
2013-11-26 20:21:00,43.8,42.2,29.74,South,181,0.0,3.0,94,0.09,,,1.29,Wunderground v.1.15,2013-11-27 01:21:00,
2013-11-26 20:26:00,43.8,42.2,29.74,SSW,200,0.0,3.0,94,0.09,,,1.29,Wunderground v.1.15,2013-11-27 01:26:00,
2013-11-26 20:31:00,43.8,41.9,29.74,SE,143,1.0,1.0,93,0.05,,,1.29,Wunderground v.1.15,2013-11-27 01:31:00,
2013-11-26 20:36:00,43.8,42.2,29.74,SSE,160,1.0,3.0,94,0.04,,,1.29,Wunderground v.1.15,2013-11-27 01:36:00,
2013-11-26 20:41:00,43.8,42.2,29.74,SE,138,0.0,3.0,94,0.73,,,1.32,Wunderground v.1.15,2013-11-27 01:41:00,
2013-11-26 20:46:00,43.8,42.2,29.74,SW,219,0.0,3.0,94,0.12,,,1.33,Wunderground v.1.15,2013-11-27 01:46:00,
2013-11-26 20:51:00,43.8,42.2,29.74,SSE,153,0.0,3.0,94,0.06,,,1.33,Wunderground v.1.15,2013-11-27 01:51:00,
2013-11-26 20:56:00,43.9,42.3,29.74,West,260,1.0,3.0,94,0.04,,,1.33,Wunderground v.1.15,2013-11-27 01:56:00,
2013-11-26 21:01:00,43.9,42.3,29.74,SSW,193,0.0,3.0,94,0.00,,,1.34,Wunderground v.1.15,2013-11-27 02:01:00,
2013-11-26 21:11:00,44.0,42.4,29.73,South,173,0.0,3.0,94,0.07,,,1.35,Wunderground v.1.15,2013-11-27 02:11:00,
2013-11-26 21:16:00,44.1,42.5,29.72,SSE,167,1.0,3.0,94,0.07,,,1.35,Wunderground v.1.15,2013-11-27 02:16:00,
2013-11-26 21:21:00,44.2,42.6,29.73,SSE,167,0.0,3.0,94,0.05,,,1.35,Wunderground v.1.15,2013-11-27 02:21:00,
2013-11-26 21:31:00,44.3,42.4,29.72,SSE,166,0.0,3.0,93,0.00,,,1.35,Wunderground v.1.15,2013-11-27 02:31:00,
2013-11-26 21:36:00,44.3,42.7,29.71,SE,143,0.0,3.0,94,0.00,,,1.35,Wunderground v.1.15,2013-11-27 02:36:00,
2013-11-26 21:46:00,44.3,42.7,29.72,SE,135,0.0,3.0,94,0.00,,,1.35,Wunderground v.1.15,2013-11-27 02:46:00,
2013-11-26 21:51:00,44.3,42.7,29.71,SSE,148,0.0,3.0,94,0.00,,,1.35,Wunderground v.1.15,2013-11-27 02:51:00,
2013-11-26 21:56:00,44.3,42.7,29.72,ENE,72,0.0,3.0,94,0.00,,,1.36,Wunderground v.1.15,2013-11-27 02:56:00,
2013-11-26 22:01:00,44.3,42.7,29.72,East,91,0.0,3.0,94,0.00,,,1.36,Wunderground v.1.15,2013-11-27 03:01:00,
2013-11-26 22:06:00,44.3,42.7,29.71,East,101,0.0,3.0,94,0.06,,,1.37,Wunderground v.1.15,2013-11-27 03:06:00,
2013-11-26 22:11:00,44.3,42.7,29.71,ESE,103,0.0,3.0,94,0.06,,,1.37,Wunderground v.1.15,2013-11-27 03:11:00,
2013-11-26 22:16:00,44.3,42.7,29.71,ESE,104,0.0,3.0,94,0.04,,,1.37,Wunderground v.1.15,2013-11-27 03:16:00,
2013-11-26 22:21:00,44.3,42.7,29.70,ESE,105,0.0,3.0,94,0.00,,,1.37,Wunderground v.1.15,2013-11-27 03:21:00,
2013-11-26 22:26:00,44.4,42.8,29.71,NE,53,0.0,3.0,94,0.00,,,1.37,Wunderground v.1.15,2013-11-27 03:26:00,
2013-11-26 22:31:00,44.5,42.6,29.71,NE,53,0.0,3.0,93,0.00,,,1.37,Wunderground v.1.15,2013-11-27 03:31:00,
2013-11-26 22:41:00,44.5,42.9,29.70,East,99,0.0,3.0,94,0.00,,,1.37,Wunderground v.1.15,2013-11-27 03:41:00,
2013-11-26 22:51:00,44.6,43.0,29.69,South,185,0.0,3.0,94,0.00,,,1.38,Wunderground v.1.15,2013-11-27 03:51:00,
2013-11-26 22:56:00,44.7,43.1,29.69,SSE,162,0.0,3.0,94,0.00,,,1.38,Wunderground v.1.15,2013-11-27 03:56:00,
2013-11-26 23:01:00,44.8,43.2,29.69,East,88,0.0,3.0,94,0.00,,,1.38,Wunderground v.1.15,2013-11-27 04:01:00,
2013-11-26 23:06:00,44.9,43.0,29.68,ENE,76,0.0,3.0,93,0.00,,,1.38,Wunderground v.1.15,2013-11-27 04:06:00,
2013-11-26 23:11:00,44.9,43.0,29.68,ENE,76,0.0,3.0,93,0.00,,,1.39,Wunderground v.1.15,2013-11-27 04:11:00,
2013-11-26 23:16:00,45.0,43.1,29.68,ESE,119,0.0,3.0,93,0.00,,,1.39,Wunderground v.1.15,2013-11-27 04:16:00,
2013-11-26 23:21:00,45.1,43.2,29.68,ESE,119,0.0,3.0,93,0.00,,,1.39,Wunderground v.1.15,2013-11-27 04:21:00,
2013-11-26 23:26:00,45.2,43.3,29.68,ESE,119,0.0,3.0,93,0.00,,,1.39,Wunderground v.1.15,2013-11-27 04:26:00,
2013-11-26 23:31:00,45.2,43.6,29.68,SE,125,0.0,3.0,94,0.00,,,1.39,Wunderground v.1.15,2013-11-27 04:31:00,
2013-11-26 23:36:00,45.3,43.7,29.68,SSE,154,0.0,3.0,94,0.00,,,1.39,Wunderground v.1.15,2013-11-27 04:36:00,
2013-11-26 23:41:00,45.4,43.8,29.68,SSE,154,0.0,3.0,94,0.00,,,1.39,Wunderground v.1.15,2013-11-27 04:41:00,
2013-11-26 23:46:00,45.4,43.8,29.68,SSE,154,0.0,3.0,94,0.00,,,1.39,Wunderground v.1.15,2013-11-27 04:46:00,
2013-11-26 23:56:00,45.6,43.7,29.67,South,178,0.0,3.0,93,0.00,,,1.40,Wunderground v.1.15,2013-11-27 04:56:00,